QPF
0.11 0.12 0.12 0.12 0.10 0.10 0.10 0.09 0.07 0.05 0.05 0.04 0.03 0.03 0.03 0.04 0.06 0.06 0.06 0.07 0.08 0.09 0.11 0.12 0.11 0.09 0.07 0.06 0.05 0.06 0.06 0.06 0.07 0.07 0.09 0.09 0.08 0.06 0.06 0.05 0.07 0.08 0.07
0.14 0.16 0.18 0.16 0.14 0.11 0.09 0.08 0.06 0.05 0.05 0.03 0.03 0.03 0.03 0.04 0.04 0.03 0.03 0.05 0.06 0.06 0.08 0.08 0.07 0.06 0.05 0.05 0.04 0.04 0.05 0.07 0.06 0.04 0.04 0.05 0.05 0.05 0.06 0.06 0.06 0.05 0.05
0.09 0.13 0.19 0.17 0.15 0.11 0.10 0.10 0.09 0.06 0.04 0.04 0.04 0.02 0.02 0.04 0.04 0.02 0.03 0.04 0.04 0.07 0.09 0.08 0.07 0.07 0.07 0.06 0.06 0.04 0.05 0.05 0.05 0.06 0.05 0.05 0.05 0.04 0.04 0.06 0.07 0.07 0.05
0.03 0.04 0.09 0.12 0.15 0.13 0.12 0.11 0.09 0.05 0.03 0.03 0.02 0.01 0.02 0.02 0.03 0.03 0.02 0.01 0.03 0.04 0.06 0.08 0.08 0.08 0.07 0.06 0.06 0.06 0.04 0.04 0.04 0.04 0.04 0.04 0.04 0.04 0.05 0.05 0.06 0.06 0.06
0.01 0.02 0.03 0.07 0.15 0.15 0.12 0.08 0.05 0.03 0.02 0.02 0.01 0.01 0.01 0.03 0.04 0.04 0.02 0.01 0.03 0.03 0.04 0.05 0.06 0.06 0.06 0.06 0.07 0.06 0.06 0.05 0.05 0.04 0.05 0.05 0.05 0.05 0.05 0.06 0.06 0.07 0.07
0.01 0.02 0.03 0.06 0.10 0.11 0.08 0.05 0.03 0.03 0.03 0.03 0.02 0.02 0.03 0.04 0.04 0.05 0.05 0.03 0.04 0.05 0.04 0.04 0.04 0.05 0.07 0.09 0.10 0.08 0.08 0.07 0.06 0.06 0.06 0.06 0.07 0.07 0.06 0.05 0.05 0.07 0.08
0.01 0.01 0.02 0.03 0.04 0.04 0.05 0.04 0.03 0.04 0.04 0.02 0.03 0.04 0.03 0.03 0.03 0.04 0.05 0.05 0.03 0.03 0.03 0.04 0.05 0.06 0.05 0.07 0.07 0.07 0.07 0.08 0.08 0.08 0.08 0.07 0.08 0.08 0.08 0.07 0.05 0.05 0.06
0.01 0.01 0.01 0.02 0.02 0.03 0.03 0.03 0.03 0.03 0.02 0.02 0.03 0.04 0.04 0.04 0.03 0.04 0.04 0.03 0.03 0.03 0.03 0.04 0.05 0.06 0.05 0.05 0.04 0.03 0.05 0.07 0.08 0.09 0.09 0.09 0.09 0.08 0.09 0.09 0.08 0.07 0.06
0.01 0.02 0.02 0.02 0.02 0.02 0.01 0.01 0.02 0.02 0.02 0.02 0.04 0.04 0.04 0.03 0.03 0.03 0.03 0.03 0.03 0.03 0.04 0.05 0.05 0.06 0.06 0.05 0.05 0.05 0.05 0.06 0.07 0.08 0.09 0.09 0.10 0.10 0.10 0.10 0.10 0.11 0.10
0.01 0.02 0.02 0.02 0.02 0.02 0.01 0.00 0.01 0.02 0.02 0.02 0.04 0.04 0.04 0.04 0.03 0.02 0.02 0.03 0.03 0.03 0.04 0.04 0.04 0.05 0.05 0.06 0.08 0.10 0.11 0.10 0.09 0.09 0.11 0.15 0.17 0.16 0.13 0.12 0.12 0.12 0.10
0.01 0.01 0.01 0.01 0.02 0.02 0.03 0.02 0.01 0.02 0.03 0.04 0.04 0.05 0.05 0.04 0.03 0.02 0.02 0.03 0.03 0.04 0.04 0.04 0.03 0.02 0.03 0.06 0.07 0.08 0.11 0.11 0.09 0.09 0.13 0.16 0.17 0.16 0.15 0.14 0.12 0.11 0.10
0.02 0.01 0.01 0.01 0.02 0.02 0.02 0.02 0.02 0.03 0.04 0.05 0.06 0.05 0.05 0.04 0.04 0.02 0.01 0.02 0.03 0.04 0.04 0.03 0.02 0.02 0.03 0.04 0.06 0.06 0.07 0.08 0.08 0.09 0.10 0.12 0.13 0.13 0.13 0.14 0.13 0.12 0.11
0.01 0.01 0.00 0.01 0.01 0.01 0.02 0.04 0.04 0.04 0.06 0.07 0.06 0.05 0.04 0.04 0.05 0.03 0.02 0.02 0.04 0.04 0.03 0.03 0.02 0.02 0.02 0.03 0.05 0.05 0.04 0.05 0.05 0.05 0.07 0.11 0.13 0.14 0.13 0.12 0.11 0.11 0.12
0.01 0.01 0.01 0.01 0.01 0.02 0.04 0.05 0.05 0.06 0.06 0.07 0.06 0.05 0.04 0.03 0.03 0.03 0.03 0.04 0.04 0.03 0.03 0.02 0.02 0.02 0.02 0.02 0.03 0.05 0.05 0.05 0.06 0.06 0.06 0.07 0.08 0.10 0.11 0.11 0.10 0.09 0.07
0.02 0.01 0.01 0.02 0.04 0.05 0.06 0.07 0.05 0.04 0.04 0.04 0.04 0.04 0.03 0.02 0.02 0.02 0.03 0.03 0.04 0.04 0.02 0.02 0.02 0.02 0.01 0.01 0.03 0.03 0.03 0.05 0.06 0.06 0.06 0.06 0.06 0.06 0.07 0.06 0.05 0.05 0.05
0.03 0.03 0.03 0.03 0.05 0.06 0.06 0.05 0.05 0.04 0.03 0.02 0.02 0.02 0.01 0.02 0.02 0.03 0.03 0.03 0.04 0.04 0.03 0.01 0.01 0.02 0.01 0.01 0.02 0.02 0.03 0.04 0.05 0.04 0.04 0.04 0.05 0.04 0.04 0.03 0.03 0.03 0.03
0.06 0.07 0.07 0.07 0.06 0.05 0.06 0.05 0.04 0.03 0.01 0.01 0.01 0.01 0.01 0.01 0.02 0.02 0.03 0.04 0.04 0.05 0.03 0.02 0.02 0.02 0.02 0.01 0.01 0.02 0.02 0.02 0.02 0.02 0.01 0.02 0.02 0.03 0.03 0.02 0.02 0.02 0.02
0.08 0.08 0.07 0.08 0.05 0.05 0.06 0.05 0.03 0.02 0.02 0.01 0.01 0.02 0.02 0.02 0.02 0.02 0.02 0.03 0.04 0.04 0.03 0.03 0.03 0.03 0.03 0.02 0.02 0.02 0.02 0.02 0.01 0.01 0.01 0.00 0.00 0.00 0.01 0.01 0.01 0.01 0.01
0.07 0.07 0.04 0.04 0.04 0.04 0.04 0.02 0.01 0.02 0.02 0.01 0.02 0.02 0.01 0.01 0.01 0.01 0.02 0.02 0.03 0.04 0.03 0.03 0.03 0.02 0.03 0.02 0.02 0.01 0.01 0.01 0.01 0.01 0.01 0.00 0.00 0.00 0.00 0.00 0.00 0.00 0.00
0.05 0.05 0.04 0.03 0.03 0.02 0.02 0.01 0.01 0.01 0.02 0.02 0.02 0.02 0.02 0.02 0.01 0.02 0.01 0.02 0.04 0.04 0.03 0.03 0.02 0.02 0.02 0.02 0.02 0.02 0.01 0.01 0.01 0.01 0.00 0.00 0.00 0.00 0.00 0.00 0.00 0.00 0.00
0.06 0.05 0.05 0.03 0.02 0.01 0.01 0.02 0.03 0.03 0.03 0.03 0.02 0.03 0.03 0.03 0.03 0.02 0.01 0.02 0.03 0.03 0.03 0.02 0.02 0.02 0.02 0.02 0.02 0.01 0.01 0.01 0.01 0.01 0.00 0.00 0.00 0.00 0.00 0.00 0.00 0.00 0.00
0.06 0.05 0.04 0.03 0.03 0.03 0.03 0.03 0.02 0.02 0.02 0.01 0.01 0.01 0.02 0.03 0.03 0.03 0.03 0.03 0.02 0.02 0.03 0.02 0.03 0.02 0.03 0.02 0.02 0.02 0.02 0.02 0.01 0.01 0.01 0.01 0.00 0.00 0.00 0.00 0.00 0.00 0.01
0.04 0.04 0.03 0.03 0.03 0.03 0.04 0.03 0.02 0.02 0.01 0.01 0.01 0.01 0.01 0.02 0.02 0.02 0.02 0.03 0.03 0.03 0.03 0.03 0.02 0.03 0.03 0.03 0.03 0.03 0.02 0.02 0.02 0.02 0.02 0.01 0.01 0.00 0.00 0.00 0.00 0.00 0.00
0.02 0.02 0.02 0.02 0.02 0.03 0.02 0.02 0.02 0.01 0.01 0.01 0.01 0.02 0.02 0.02 0.02 0.03 0.03 0.03 0.03 0.02 0.03 0.03 0.03 0.03 0.03 0.04 0.04 0.04 0.04 0.04 0.03 0.03 0.02 0.02 0.01 0.01 0.01 0.00 0.00 0.00 0.00
0.01 0.01 0.01 0.01 0.02 0.02 0.02 0.02 0.02 0.01 0.01 0.01 0.01 0.02 0.02 0.02 0.03 0.03 0.03 0.03 0.02 0.03 0.03 0.04 0.05 0.05 0.06 0.06 0.05 0.04 0.04 0.04 0.04 0.05 0.05 0.05 0.03 0.02 0.02 0.01 0.00 0.00 0.00
0.01 0.02 0.02 0.02 0.02 0.02 0.03 0.04 0.03 0.02 0.02 0.01 0.01 0.02 0.02 0.03 0.04 0.03 0.03 0.03 0.03 0.04 0.05 0.07 0.07 0.07 0.05 0.05 0.05 0.04 0.04 0.04 0.05 0.05 0.06 0.08 0.07 0.05 0.03 0.01 0.00 0.00 0.00
MSLP
1010.52 1010.67 1010.80 1010.92 1011.05 1011.24 1011.49 1011.84 1012.27 1012.79 1013.37 1013.97 1014.56 1015.10 1015.57 1015.97 1016.29 1016.55 1016.78 1017.00 1017.24 1017.52 1017.84 1018.19 1018.56 1018.92 1019.23 1019.48 1019.67 1019.80 1019.87 1019.93 1020.00 1020.10 1020.24 1020.41 1020.62 1020.84 1021.04 1021.22 1021.37 1021.49 1021.60
1011.14 1011.32 1011.48 1011.64 1011.82 1012.04 1012.32 1012.70 1013.17 1013.72 1014.32 1014.92 1015.50 1016.00 1016.41 1016.71 1016.92 1017.07 1017.20 1017.34 1017.52 1017.77 1018.09 1018.45 1018.82 1019.17 1019.47 1019.68 1019.81 1019.87 1019.88 1019.89 1019.91 1019.98 1020.10 1020.28 1020.49 1020.71 1020.92 1021.10 1021.25 1021.36 1021.46
1011.79 1012.00 1012.20 1012.41 1012.64 1012.92 1013.25 1013.66 1014.16 1014.72 1015.31 1015.90 1016.43 1016.88 1017.20 1017.42 1017.53 1017.58 1017.61 1017.67 1017.79 1018.00 1018.28 1018.62 1018.98 1019.30 1019.56 1019.74 1019.82 1019.83 1019.80 1019.76 1019.76 1019.81 1019.93 1020.12 1020.34 1020.57 1020.79 1020.97 1021.12 1021.23 1021.32
1012.48 1012.71 1012.96 1013.23 1013.52 1013.85 1014.22 1014.65 1015.15 1015.69 1016.25 1016.79 1017.27 1017.64 1017.90 1018.04 1018.07 1018.04 1017.99 1017.98 1018.04 1018.18 1018.41 1018.69 1019.00 1019.28 1019.50 1019.63 1019.68 1019.66 1019.60 1019.55 1019.54 1019.60 1019.73 1019.92 1020.15 1020.39 1020.62 1020.81 1020.96 1021.08 1021.16
1013.14 1013.40 1013.70 1014.02 1014.36 1014.73 1015.13 1015.56 1016.04 1016.54 1017.04 1017.52 1017.93 1018.25 1018.45 1018.54 1018.52 1018.44 1018.33 1018.26 1018.24 1018.31 1018.46 1018.66 1018.90 1019.11 1019.27 1019.37 1019.39 1019.36 1019.30 1019.26 1019.26 1019.33 1019.47 1019.66 1019.90 1020.14 1020.37 1020.57 1020.72 1020.83 1020.92
1013.71 1013.99 1014.32 1014.69 1015.07 1015.46 1015.86 1016.28 1016.71 1017.16 1017.60 1018.01 1018.37 1018.65 1018.83 1018.89 1018.86 1018.76 1018.63 1018.50 1018.42 1018.40 1018.45 1018.56 1018.69 1018.82 1018.93 1018.98 1018.99 1018.96 1018.91 1018.89 1018.91 1018.99 1019.14 1019.33 1019.56 1019.79 1020.01 1020.19 1020.33 1020.44 1020.52
1014.14 1014.42 1014.77 1015.16 1015.56 1015.96 1016.35 1016.74 1017.13 1017.52 1017.90 1018.26 1018.59 1018.85 1019.03 1019.11 1019.10 1019.01 1018.87 1018.71 1018.56 1018.46 1018.40 1018.40 1018.43 1018.47 1018.51 1018.52 1018.51 1018.49 1018.47 1018.46 1018.50 1018.59 1018.73 1018.91 1019.11 1019.30 1019.49 1019.64 1019.76 1019.86 1019.94
1014.42 1014.69 1015.03 1015.41 1015.82 1016.21 1016.59 1016.95 1017.29 1017.63 1017.96 1018.29 1018.60 1018.88 1019.08 1019.21 1019.24 1019.18 1019.05 1018.87 1018.67 1018.49 1018.33 1018.22 1018.14 1018.10 1018.07 1018.05 1018.02 1018.01 1018.00 1018.01 1018.05 1018.13 1018.24 1018.38 1018.52 1018.67 1018.80 1018.91 1019.00 1019.08 1019.16
1014.59 1014.82 1015.13 1015.50 1015.89 1016.27 1016.63 1016.95 1017.26 1017.56 1017.86 1018.17 1018.49 1018.78 1019.03 1019.20 1019.29 1019.28 1019.16 1018.98 1018.74 1018.49 1018.24 1018.03 1017.87 1017.74 1017.66 1017.60 1017.57 1017.55 1017.55 1017.56 1017.59 1017.63 1017.69 1017.76 1017.84 1017.91 1017.97 1018.03 1018.09 1018.15 1018.23
1014.72 1014.90 1015.17 1015.50 1015.86 1016.22 1016.55 1016.85 1017.12 1017.39 1017.67 1017.97 1018.29 1018.60 1018.89 1019.12 1019.25 1019.28 1019.19 1019.01 1018.75 1018.44 1018.14 1017.85 1017.62 1017.43 1017.30 1017.22 1017.17 1017.15 1017.13 1017.13 1017.12 1017.12 1017.11 1017.10 1017.09 1017.08 1017.08 1017.08 1017.09 1017.14 1017.21
1014.86 1014.98 1015.20 1015.50 1015.82 1016.15 1016.45 1016.71 1016.96 1017.20 1017.46 1017.74 1018.05 1018.38 1018.69 1018.95 1019.12 1019.18 1019.12 1018.94 1018.67 1018.35 1018.00 1017.68 1017.40 1017.18 1017.02 1016.92 1016.86 1016.82 1016.78 1016.74 1016.69 1016.63 1016.55 1016.46 1016.36 1016.28 1016.20 1016.15 1016.14 1016.17 1016.24
1015.04 1015.11 1015.28 1015.53 1015.81 1016.10 1016.37 1016.60 1016.82 1017.02 1017.25 1017.51 1017.80 1018.12 1018.43 1018.70 1018.89 1018.97 1018.93 1018.76 1018.51 1018.18 1017.83 1017.50 1017.21 1016.98 1016.81 1016.69 1016.62 1016.56 1016.50 1016.42 1016.32 1016.19 1016.04 1015.88 1015.72 1015.57 1015.45 1015.36 1015.33 1015.34 1015.42
1015.23 1015.26 1015.39 1015.60 1015.84 1016.09 1016.32 1016.52 1016.69 1016.86 1017.04 1017.26 1017.52 1017.81 1018.10 1018.36 1018.55 1018.64 1018.62 1018.48 1018.25 1017.96 1017.63 1017.32 1017.04 1016.82 1016.66 1016.54 1016.45 1016.37 1016.28 1016.16 1016.01 1015.83 1015.63 1015.42 1015.21 1015.03 1014.88 1014.78 1014.73 1014.75 1014.82
1015.39 1015.40 1015.50 1015.67 1015.87 1016.08 1016.27 1016.42 1016.55 1016.67 1016.81 1016.98 1017.19 1017.43 1017.69 1017.93 1018.11 1018.21 1018.22 1018.12 1017.93 1017.68 1017.41 1017.14 1016.90 1016.70 1016.55 1016.44 1016.34 1016.23 1016.11 1015.96 1015.77 1015.56 1015.33 1015.09 1014.88 1014.68 1014.53 1014.44 1014.39 1014.41 1014.47
1015.47 1015.47 1015.55 1015.68 1015.85 1016.02 1016.17 1016.28 1016.37 1016.44 1016.53 1016.64 1016.80 1017.00 1017.21 1017.43 1017.61 1017.72 1017.75 1017.69 1017.57 1017.38 1017.17 1016.96 1016.77 1016.61 1016.48 1016.37 1016.26 1016.14 1015.99 1015.82 1015.61 1015.38 1015.14 1014.91 1014.70 1014.53 1014.40 1014.32 1014.29 1014.31 1014.37
1015.40 1015.41 1015.48 1015.60 1015.74 1015.88 1015.99 1016.06 1016.11 1016.14 1016.18 1016.24 1016.36 1016.51 1016.69 1016.89 1017.06 1017.19 1017.26 1017.25 1017.19 1017.08 1016.94 1016.80 1016.66 1016.54 1016.43 1016.32 1016.20 1016.07 1015.90 1015.71 1015.49 1015.27 1015.04 1014.84 1014.66 1014.52 1014.43 1014.38 1014.36 1014.38 1014.44
1015.17 1015.19 1015.27 1015.38 1015.50 1015.62 1015.70 1015.74 1015.76 1015.76 1015.76 1015.79 1015.87 1016.00 1016.16 1016.34 1016.52 1016.66 1016.77 1016.82 1016.82 1016.78 1016.71 1016.63 1016.54 1016.45 1016.36 1016.26 1016.14 1015.99 1015.82 1015.62 1015.41 1015.20 1015.00 1014.83 1014.70 1014.60 1014.55 1014.53 1014.53 1014.56 1014.60
1014.80 1014.84 1014.93 1015.04 1015.16 1015.26 1015.33 1015.35 1015.34 1015.32 1015.30 1015.32 1015.37 1015.48 1015.63 1015.81 1016.00 1016.17 1016.31 1016.41 1016.46 1016.48 1016.47 1016.44 1016.39 1016.33 1016.26 1016.16 1016.04 1015.89 1015.72 1015.53 1015.33 1015.14 1014.98 1014.85 1014.76 1014.70 1014.68 1014.69 1014.71 1014.75 1014.79
1014.32 1014.40 1014.50 1014.63 1014.75 1014.84 1014.90 1014.92 1014.90 1014.86 1014.84 1014.84 1014.89 1014.99 1015.14 1015.32 1015.51 1015.70 1015.87 1016.00 1016.10 1016.16 1016.19 1016.20 1016.18 1016.15 1016.09 1016.01 1015.89 1015.75 1015.59 1015.41 1015.23 1015.07 1014.94 1014.84 1014.79 1014.76 1014.77 1014.80 1014.84 1014.88 1014.93
1013.80 1013.90 1014.03 1014.17 1014.30 1014.39 1014.45 1014.46 1014.44 1014.41 1014.39 1014.40 1014.44 1014.54 1014.69 1014.87 1015.07 1015.26 1015.44 1015.59 1015.71 1015.80 1015.86 1015.89 1015.90 1015.89 1015.86 1015.79 1015.69 1015.57 1015.43 1015.27 1015.12 1014.98 1014.87 1014.80 1014.76 1014.76 1014.79 1014.83 1014.88 1014.94 1015.00
1013.26 1013.39 1013.55 1013.70 1013.84 1013.94 1014.00 1014.01 1014.00 1013.98 1013.96 1013.97 1014.03 1014.13 1014.28 1014.45 1014.65 1014.84 1015.01 1015.17 1015.29 1015.39 1015.46 1015.52 1015.55 1015.56 1015.55 1015.51 1015.44 1015.35 1015.23 1015.10 1014.97 1014.86 1014.77 1014.71 1014.69 1014.70 1014.73 1014.78 1014.84 1014.91 1014.99
1012.73 1012.89 1013.06 1013.22 1013.37 1013.47 1013.54 1013.56 1013.56 1013.55 1013.55 1013.58 1013.65 1013.76 1013.91 1014.08 1014.26 1014.44 1014.60 1014.74 1014.85 1014.94 1015.02 1015.08 1015.13 1015.17 1015.19 1015.19 1015.16 1015.10 1015.02 1014.93 1014.82 1014.73 1014.65 1014.60 1014.57 1014.58 1014.61 1014.66 1014.73 1014.81 1014.91
1012.20 1012.38 1012.56 1012.73 1012.88 1012.99 1013.06 1013.10 1013.11 1013.12 1013.15 1013.20 1013.29 1013.42 1013.57 1013.74 1013.91 1014.07 1014.21 1014.32 1014.42 1014.50 1014.57 1014.64 1014.70 1014.76 1014.81 1014.85 1014.86 1014.85 1014.81 1014.75 1014.67 1014.59 1014.52 1014.47 1014.44 1014.44 1014.46 1014.50 1014.57 1014.67 1014.80
1011.64 1011.84 1012.03 1012.20 1012.35 1012.46 1012.54 1012.60 1012.64 1012.68 1012.75 1012.84 1012.96 1013.12 1013.29 1013.46 1013.62 1013.77 1013.88 1013.97 1014.04 1014.10 1014.16 1014.23 1014.30 1014.38 1014.46 1014.53 1014.58 1014.61 1014.61 1014.58 1014.52 1014.46 1014.40 1014.34 1014.30 1014.29 1014.30 1014.34 1014.42 1014.53 1014.68
1011.03 1011.24 1011.44 1011.61 1011.76 1011.88 1011.97 1012.05 1012.13 1012.23 1012.35 1012.50 1012.67 1012.87 1013.07 1013.26 1013.43 1013.56 1013.66 1013.72 1013.77 1013.81 1013.85 1013.90 1013.97 1014.06 1014.15 1014.25 1014.33 1014.39 1014.42 1014.41 1014.38 1014.33 1014.28 1014.22 1014.18 1014.16 1014.17 1014.20 1014.28 1014.40 1014.56
1010.35 1010.57 1010.77 1010.95 1011.11 1011.24 1011.36 1011.48 1011.61 1011.77 1011.96 1012.19 1012.43 1012.69 1012.93 1013.15 1013.34 1013.47 1013.56 1013.60 1013.62 1013.63 1013.65 1013.68 1013.74 1013.82 1013.91 1014.02 1014.11 1014.19 1014.23 1014.25 1014.24 1014.20 1014.16 1014.11 1014.07 1014.06 1014.07 1014.12 1014.20 1014.33 1014.50
Thickness
5766 5765 5764 5763 5762 5762 5761 5759 5757 5755 5753 5751 5750 5748 5746 5745 5744 5743 5743 5743 5743 5742 5741 5740 5738 5737 5736 5735 5734 5733 5731 5730 5728 5727 5725 5724 5722 5721 5720 5718 5717 5716 5715
5766 5764 5763 5762 5761 5760 5759 5757 5755 5753 5751 5749 5747 5746 5744 5743 5743 5742 5742 5741 5741 5740 5740 5739 5737 5736 5735 5734 5733 5731 5730 5729 5727 5726 5724 5722 5721 5719 5718 5717 5716 5714 5713
5765 5764 5762 5760 5759 5758 5757 5755 5753 5751 5748 5746 5744 5744 5743 5742 5741 5740 5740 5739 5738 5738 5737 5736 5736 5735 5734 5733 5732 5730 5729 5727 5726 5724 5722 5721 5719 5718 5717 5716 5715 5713 5712
5764 5763 5761 5759 5758 5756 5755 5753 5751 5748 5745 5743 5742 5741 5741 5740 5739 5738 5737 5737 5736 5735 5735 5734 5734 5733 5732 5731 5730 5729 5728 5726 5724 5722 5721 5719 5718 5716 5715 5714 5713 5712 5711
5763 5762 5760 5758 5757 5755 5753 5752 5748 5746 5743 5741 5740 5739 5739 5738 5737 5736 5735 5735 5734 5734 5733 5732 5731 5731 5730 5729 5728 5727 5725 5724 5722 5720 5719 5718 5717 5715 5714 5713 5711 5710 5709
5763 5761 5759 5758 5756 5754 5752 5750 5747 5744 5742 5740 5739 5737 5736 5736 5735 5734 5734 5733 5733 5732 5731 5730 5729 5728 5727 5727 5725 5724 5723 5721 5720 5719 5717 5716 5715 5713 5712 5711 5710 5708 5707
5763 5761 5759 5757 5755 5753 5751 5749 5746 5743 5740 5740 5736 5732 5733 5734 5733 5732 5732 5731 5731 5731 5730 5728 5727 5726 5725 5724 5723 5722 5721 5720 5718 5717 5715 5714 5713 5711 5710 5708 5707 5706 5705
5763 5762 5759 5757 5755 5753 5750 5748 5746 5742 5740 5739 5735 5730 5725 5726 5729 5731 5730 5730 5729 5729 5729 5728 5726 5724 5723 5722 5721 5720 5719 5718 5716 5715 5713 5711 5710 5709 5707 5706 5704 5703 5702
5764 5762 5760 5758 5755 5753 5750 5748 5746 5743 5739 5738 5738 5733 5725 5721 5723 5727 5728 5728 5727 5727 5726 5725 5724 5723 5722 5720 5719 5719 5717 5716 5714 5712 5710 5709 5707 5705 5704 5702 5701 5700 5699
5765 5763 5760 5758 5756 5754 5751 5749 5748 5745 5742 5738 5736 5736 5733 5730 5724 5721 5724 5725 5725 5724 5724 5723 5722 5721 5720 5719 5718 5717 5715 5713 5711 5709 5708 5706 5704 5702 5700 5698 5697 5697 5696
5765 5763 5761 5759 5757 5754 5752 5750 5748 5746 5744 5741 5738 5736 5733 5730 5728 5723 5719 5721 5722 5722 5722 5721 5720 5719 5718 5717 5716 5714 5712 5711 5709 5706 5704 5703 5700 5698 5697 5695 5694 5693 5692
5764 5763 5762 5760 5757 5755 5752 5750 5748 5747 5745 5743 5740 5738 5735 5731 5728 5724 5720 5719 5718 5719 5720 5719 5719 5718 5716 5715 5713 5712 5710 5708 5706 5703 5701 5699 5696 5694 5693 5691 5689 5688 5687
5763 5762 5762 5759 5757 5756 5753 5751 5749 5747 5745 5743 5741 5739 5737 5736 5733 5728 5723 5719 5716 5717 5717 5717 5717 5715 5714 5712 5710 5709 5706 5704 5702 5699 5697 5694 5691 5689 5688 5686 5684 5682 5681
5764 5763 5762 5760 5758 5755 5753 5751 5748 5746 5745 5743 5741 5739 5737 5736 5734 5730 5726 5721 5715 5713 5714 5714 5714 5713 5711 5709 5707 5705 5702 5700 5697 5695 5692 5690 5687 5685 5683 5680 5678 5676 5675
5765 5763 5762 5760 5757 5755 5752 5750 5747 5745 5744 5742 5741 5739 5737 5736 5734 5732 5729 5725 5719 5712 5711 5712 5711 5711 5708 5706 5704 5701 5698 5696 5693 5690 5688 5685 5682 5679 5677 5675 5673 5671 5670
5765 5763 5760 5758 5756 5754 5751 5749 5747 5745 5743 5741 5740 5738 5736 5735 5733 5731 5728 5725 5722 5717 5712 5712 5710 5708 5705 5703 5700 5697 5694 5691 5688 5686 5683 5680 5677 5674 5672 5669 5667 5665 5664
5762 5760 5758 5756 5754 5751 5750 5747 5745 5744 5742 5740 5738 5737 5735 5734 5732 5730 5727 5724 5721 5717 5712 5710 5707 5705 5701 5699 5696 5693 5690 5687 5684 5681 5678 5675 5672 5669 5666 5664 5661 5659 5657
5761 5759 5756 5754 5752 5750 5748 5746 5743 5742 5740 5738 5737 5735 5734 5733 5730 5728 5725 5722 5720 5716 5712 5707 5704 5701 5697 5695 5692 5689 5685 5683 5679 5677 5673 5670 5667 5664 5661 5658 5655 5653 5651
5760 5758 5755 5753 5751 5749 5747 5745 5743 5741 5739 5738 5737 5734 5733 5731 5728 5726 5723 5720 5718 5715 5711 5707 5702 5698 5693 5690 5687 5684 5681 5678 5675 5672 5669 5666 5662 5659 5656 5652 5649 5647 5644
5759 5756 5754 5752 5750 5747 5745 5743 5741 5739 5738 5736 5735 5733 5731 5729 5727 5725 5722 5719 5716 5711 5707 5703 5699 5694 5690 5686 5683 5679 5676 5673 5670 5667 5664 5661 5657 5654 5651 5648 5644 5641 5638
5757 5755 5753 5750 5748 5746 5744 5741 5739 5737 5735 5734 5732 5730 5729 5728 5727 5724 5721 5717 5713 5709 5704 5700 5696 5692 5687 5683 5680 5677 5673 5669 5665 5662 5659 5656 5653 5649 5645 5642 5639 5636 5633
5754 5752 5750 5747 5745 5744 5742 5739 5737 5735 5733 5731 5729 5728 5727 5726 5724 5722 5719 5716 5712 5707 5703 5698 5694 5690 5687 5684 5679 5675 5670 5665 5662 5659 5654 5651 5648 5644 5641 5637 5634 5631 5628
5749 5747 5745 5743 5742 5740 5739 5736 5734 5732 5730 5728 5726 5724 5724 5723 5721 5719 5716 5712 5709 5706 5703 5699 5694 5690 5686 5683 5678 5671 5667 5664 5660 5655 5650 5647 5642 5640 5637 5633 5630 5627 5623
5745 5743 5741 5739 5737 5736 5735 5732 5730 5728 5726 5724 5722 5721 5719 5718 5717 5714 5711 5708 5704 5702 5699 5696 5692 5689 5686 5681 5676 5671 5666 5659 5654 5649 5645 5642 5638 5635 5632 5628 5625 5622 5618
5740 5738 5736 5734 5732 5731 5730 5728 5725 5723 5722 5720 5719 5717 5715 5713 5712 5709 5705 5702 5699 5696 5694 5690 5687 5683 5680 5675 5670 5665 5659 5654 5650 5646 5640 5637 5634 5629 5626 5623 5620 5616 5613
5735 5733 5731 5729 5727 5725 5725 5722 5720 5718 5716 5715 5714 5712 5710 5708 5705 5702 5699 5696 5693 5690 5687 5683 5680 5677 5673 5669 5664 5661 5657 5651 5647 5642 5637 5632 5629 5624 5621 5618 5614 5611 5607